[[{"header":{"parameterUnit":"m.s-1","parameterCategory":1,"la1":30.2991,"la2":30.254,"lo1":-89.0895,"lo2":-89.0444,"dy":0.0017,"dx":0.0017,"nx":28,"ny":28,"refTime":"2024-06-09T21:00:00:Z","depth":0,"parameterNumber":2,"parameterNumberName":"U-component_of_WINDS"},"data":[0,0,0,0,0,0,0,0,0,0,0,0,0,0,0,0,0,0,0,0,0,0,0,0,0,0,0,0,0,0,0,0,0,0,0,0,0,0,0,0,0,0,0,0,0,0,0,0,0,0,0,0,0,0,0,0,0,0,-3.205,-3.2051,0,-3.2133,-3.2134,-3.2135,-3.2073,-3.207,-3.2068,-3.2065,-3.2151,-3.2155,-3.216,0,0,0,0,0,0,0,0,0,0,0,0,0,-3.1839,-3.1843,-3.205,-3.2051,-3.2052,-3.2133,-3.2134,-3.2135,-3.2074,-3.207,-3.2067,-3.2064,-3.2149,-3.2155,-3.2161,0,0,0,0,0,0,0,0,0,0,0,0,0,-3.1927,-3.1845,-3.205,-3.2031,-3.2031,-3.2132,-3.2134,-3.2135,-3.2074,-3.207,-3.2066,-3.2063,-3.2147,-3.2154,-3.2161,-3.2286,0,0,-3.2183,-3.2186,0,0,0,0,0,0,0,0,-3.1922,-3.1935,-3.2033,-3.2033,-3.2032,-3.2089,-3.2091,-3.2186,-3.2075,-3.2058,-3.2065,-3.2061,-3.2133,-3.2141,-3.2166,-3.229,-3.2294,-3.2184,-3.2188,-3.2191,-3.2193,0,0,0,0,0,0,0,-3.1916,-3.1931,-3.2083,-3.2035,-3.2034,-3.2019,-3.2027,-3.2108,-3.2117,-3.2059,-3.2055,-3.2065,-3.2132,-3.2159,-3.2167,-3.2295,-3.2184,-3.219,-3.2194,-3.2197,-3.2524,-3.2528,0,0,0,0,0,0,-3.1912,-3.1926,-3.208,-3.2085,-3.1966,-3.2026,-3.2035,-3.2075,-3.2116,-3.2119,-3.2069,-3.2062,-3.2149,-3.2159,-3.217,-3.2317,-3.2191,-3.2198,-3.2202,-3.2519,-3.2525,-3.2529,0,0,0,0,0,0,-3.1908,-3.1926,-3.2077,-3.2005,-3.2023,-3.2034,-3.2079,-3.2078,-3.2105,-3.2123,-3.2125,-3.2094,-3.2146,-3.216,-3.2257,-3.2319,-3.2201,-3.2208,-3.2514,-3.2521,-3.2527,-3.2614,0,0,0,0,0,0,-3.1902,-3.1925,-3.1973,-3.2006,-3.2027,-3.2163,-3.2083,-3.2083,-3.2117,-3.211,-3.2148,-3.215,-3.2144,-3.2247,-3.2264,-3.2327,-3.2213,-3.2509,-3.2517,-3.2525,-3.2606,-3.2623,-3.2637,0,0,0,0,0,-3.1894,-3.1995,-3.1976,-3.1995,-3.2087,-3.2167,-3.2179,-3.2169,-3.2123,-3.217,-3.2182,-3.2149,-3.231,-3.2257,-3.2277,-3.2343,-3.2505,-3.2515,-3.2524,-3.2599,-3.2619,-3.2637,0,0,0,0,0,0,-3.1969,-3.1999,-3.1978,-3.2092,-3.2128,-3.2156,-3.2217,-3.2192,-3.2241,-3.2232,-3.2218,-3.2227,-3.2329,-3.2345,-3.2286,-3.2464,-3.24,-3.2414,-3.245,-3.247,-3.2485,-3.2479,-3.2219,0,0,0,0,0,-3.1999,-3.2062,-3.2084,-3.2183,-3.2201,-3.2206,-3.2241,-3.223,-3.2266,-3.2281,-3.2299,-3.2336,-3.2394,-3.2433,-3.2488,-3.2608,-3.2614,-3.2663,-3.2678,-3.2691,-3.2704,-3.2766,-3.2787,-3.2562,-3.2562,-3.2561,0,0,-3.2061,-3.2085,-3.2126,-3.2198,-3.2224,-3.2289,-3.2219,-3.2291,-3.2338,-3.2292,-3.2384,-3.2399,-3.2438,-3.2547,-3.2596,-3.2564,-3.2767,-3.2704,-3.2714,-3.2719,-3.2778,-3.28,-3.2819,-3.2568,-3.2567,-3.2566,0,0,-3.2207,-3.2233,-3.2316,-3.2343,-3.2383,-3.2385,-3.2405,-3.2438,-3.2446,-3.2538,-3.2504,-3.256,-3.2662,-3.269,-3.2718,-3.2873,-3.2844,-3.2892,-3.2974,-3.3035,-3.3053,-3.3069,-3.3122,-3.3142,-3.2904,-3.2904,-3.2904,0,-3.228,-3.2376,-3.2363,-3.2436,-3.2468,-3.2428,-3.2512,-3.2539,-3.2596,-3.2619,-3.2582,-3.2707,-3.2731,-3.2845,-3.2882,-3.2907,-3.2928,-3.2887,-3.3052,-3.3067,-3.3082,-3.3132,-3.3153,-3.2909,-3.2909,-3.2908,-3.2908,0,-3.2462,-3.2528,-3.2591,-3.2645,-3.2685,-3.2764,-3.2762,-3.2803,-3.2789,-3.2795,-3.2888,-3.2915,-3.2974,-3.3,-3.2987,-3.3112,-3.309,-3.3054,-3.2988,-3.3109,-3.3156,-3.3176,-3.2917,-3.2915,-3.2914,-3.2912,0,0,-3.2658,-3.2702,-3.2725,-3.2748,-3.2789,-3.284,-3.2916,-3.2973,-3.3008,-3.3048,-3.311,-3.3196,-3.3161,-3.3193,-3.3183,-3.3237,-3.3355,-3.3193,-3.3193,-3.322,-3.3492,-3.3518,-3.3541,-3.3336,-3.334,-3.3343,-3.3488,0,-3.2804,-3.2937,-3.2926,-3.3051,-3.3112,-3.3074,-3.314,-3.3171,-3.3179,-3.3231,-3.3239,-3.3299,-3.3249,-3.3268,-3.332,-3.333,-3.3409,-3.332,-3.3394,-3.3396,-3.3383,-3.3566,-3.3595,-3.373,-3.3506,-3.351,-3.3512,0,-3.2993,-3.3038,-3.3169,-3.3198,-3.3223,-3.3282,-3.3332,-3.3383,-3.3417,-3.3419,-3.3453,-3.3434,-3.3509,-3.3443,-3.3546,-3.3486,-3.3515,-3.3525,-3.353,-3.3535,-3.346,-3.3575,-3.3773,-3.3793,-3.3541,-3.3539,-3.3537,0,-3.3121,-3.3214,-3.3303,-3.3325,-3.3361,-3.3404,-3.3421,-3.3451,-3.3486,-3.3529,-3.3551,-3.3604,-3.3632,-3.3673,-3.3667,-3.362,-3.3772,-3.3706,-3.3774,-3.3774,-3.3807,-3.3805,-3.4011,-3.3829,-3.3829,-3.3829,-3.3828,0,-3.3285,-3.3365,-3.3361,-3.3416,-3.3505,-3.3492,-3.3581,-3.3593,-3.362,-3.3676,-3.3647,-3.37,-3.369,-3.3743,-3.374,-3.3825,-3.3839,-3.3841,-3.3839,-3.3843,-3.3842,-3.3861,-3.3851,-3.3834,-3.3833,-3.3832,-3.3831,0,-3.3442,-3.3442,-3.3537,-3.3563,-3.3572,-3.3636,-3.3658,-3.371,-3.3714,-3.3785,-3.3801,-3.3808,-3.3869,-3.3867,-3.3937,-3.3934,-3.4038,-3.4026,-3.4026,-3.4023,-3.4091,-3.4084,-3.4315,-3.4344,-3.4145,-3.4147,-3.4149,0,-3.3545,-3.3606,-3.3639,-3.3674,-3.3694,-3.3751,-3.3785,-3.3775,-3.3812,-3.3854,-3.39,-3.3958,-3.4003,-3.4102,-3.4113,-3.4165,-3.4153,-3.4231,-3.4161,-3.4162,-3.4152,-3.4147,-3.4152,-3.4244,-3.4246,-3.4248,-3.4249,0,-3.3729,-3.3726,-3.3776,-3.3826,-3.3867,-3.3906,-3.3942,-3.3972,-3.3966,-3.4008,-3.4069,-3.4105,-3.4174,-3.4232,-3.4282,-3.4299,-3.4273,-3.4271,-3.429,-3.4293,-3.429,-3.429,-3.4062,-3.4266,-3.4264,-3.4263,-3.4262,-3.4261,-3.3861,-3.3913,-3.3943,-3.3999,-3.4025,-3.4059,-3.4107,-3.4117,-3.4168,-3.4223,-3.4214,-3.4282,-3.4313,-3.4378,-3.4399,-3.4452,-3.4424,-3.4451,-3.4458,-3.4464,-3.447,-3.4283,-3.4461,-3.4461,-3.446,-3.446,-3.446,0,-3.4041,-3.4058,-3.411,-3.416,-3.4204,-3.4176,-3.4214,-3.4252,-3.4312,-3.4343,-3.4388,-3.4457,-3.4512,-3.4527,-3.4579,-3.4618,-3.4608,-3.4632,-3.4628,-3.4632,-3.4493,-3.4471,-3.464,-3.464,-3.464,-3.464,-3.464,-3.464,-3.4139,-3.4224,-3.4224,-3.4321,-3.4338,-3.4404,-3.4427,-3.4458,-3.4482,-3.4561,-3.4606,-3.4615,-3.4639,-3.4693,-3.4741,-3.4744,-3.4764,-3.4793,-3.4791,-3.4661,-3.4642,-3.4625,-3.4604,-3.4798,-3.4798,-3.4925,-3.4926,-3.4927]},{"header":{"parameterUnit":"m.s-1","parameterCategory":1,"la1":30.2991,"la2":30.254,"lo1":-89.0895,"lo2":-89.0444,"dy":0.0017,"dx":0.0017,"nx":28,"ny":28,"refTime":"2024-06-09T21:00:00:Z","depth":0,"parameterNumber":3,"parameterNumberName":"V-component_of_WINDS"},"data":[0,0,0,0,0,0,0,0,0,0,0,0,0,0,0,0,0,0,0,0,0,0,0,0,0,0,0,0,0,0,0,0,0,0,0,0,0,0,0,0,0,0,0,0,0,0,0,0,0,0,0,0,0,0,0,0,0,0,-4.3871,-4.3871,0,-4.385,-4.3849,-4.3849,-4.3764,-4.3762,-4.376,-4.3759,-4.3737,-4.3738,-4.374,0,0,0,0,0,0,0,0,0,0,0,0,0,-4.3837,-4.3838,-4.3871,-4.3871,-4.387,-4.385,-4.3849,-4.3849,-4.3765,-4.3762,-4.376,-4.3758,-4.3737,-4.3738,-4.374,0,0,0,0,0,0,0,0,0,0,0,0,0,-4.3837,-4.3838,-4.3871,-4.3826,-4.3821,-4.385,-4.3849,-4.3849,-4.3765,-4.3762,-4.3759,-4.3757,-4.3736,-4.3738,-4.374,-4.381,0,0,-4.3746,-4.3746,0,0,0,0,0,0,0,0,-4.3838,-4.3839,-4.3833,-4.3829,-4.3824,-4.3807,-4.3829,-4.3836,-4.3766,-4.3787,-4.3759,-4.3755,-4.3763,-4.3762,-4.3765,-4.3809,-4.3808,-4.3746,-4.3747,-4.3748,-4.3748,0,0,0,0,0,0,0,-4.3838,-4.3839,-4.3862,-4.3833,-4.3827,-4.3806,-4.3803,-4.383,-4.3791,-4.3785,-4.3778,-4.3777,-4.376,-4.3763,-4.3763,-4.3808,-4.3746,-4.3747,-4.3749,-4.3749,-4.3906,-4.3909,0,0,0,0,0,0,-4.3844,-4.384,-4.3863,-4.3862,-4.3824,-4.3809,-4.3806,-4.3815,-4.3791,-4.3784,-4.378,-4.3773,-4.3761,-4.3761,-4.3762,-4.384,-4.3748,-4.3749,-4.3751,-4.3903,-4.3906,-4.391,0,0,0,0,0,0,-4.3844,-4.3847,-4.3864,-4.3849,-4.385,-4.3813,-4.3824,-4.3816,-4.3819,-4.3787,-4.378,-4.379,-4.3759,-4.376,-4.3798,-4.3839,-4.375,-4.3752,-4.3899,-4.3904,-4.3908,-4.3999,0,0,0,0,0,0,-4.3843,-4.3847,-4.3874,-4.385,-4.3851,-4.3901,-4.3827,-4.3818,-4.3823,-4.3814,-4.3795,-4.3789,-4.3757,-4.3796,-4.38,-4.384,-4.3753,-4.3895,-4.3901,-4.3907,-4.3992,-4.4006,-4.4018,0,0,0,0,0,-4.3842,-4.3901,-4.3876,-4.3879,-4.3883,-4.3903,-4.3903,-4.3865,-4.3827,-4.3852,-4.3831,-4.3789,-4.3834,-4.3801,-4.3805,-4.3845,-4.3893,-4.39,-4.3906,-4.3986,-4.4003,-4.4018,0,0,0,0,0,0,-4.3931,-4.3897,-4.3869,-4.3922,-4.3916,-4.3889,-4.3921,-4.3885,-4.389,-4.3882,-4.3834,-4.383,-4.3875,-4.3864,-4.3828,-4.3911,-4.3856,-4.3864,-4.3916,-4.3932,-4.3944,-4.3945,-4.3755,0,0,0,0,0,-4.3957,-4.3976,-4.3946,-4.3995,-4.3994,-4.3958,-4.3965,-4.3936,-4.3928,-4.3925,-4.3907,-4.3901,-4.3913,-4.3922,-4.3932,-4.3991,-4.3984,-4.4021,-4.4034,-4.4045,-4.4051,-4.4079,-4.4094,-4.3932,-4.3932,-4.3932,0,0,-4.4011,-4.3994,-4.401,-4.4013,-4.4005,-4.4025,-4.3956,-4.3981,-4.3995,-4.3929,-4.3963,-4.395,-4.394,-4.3988,-4.4008,-4.398,-4.4095,-4.4053,-4.4062,-4.4063,-4.4088,-4.4103,-4.4117,-4.3937,-4.3936,-4.3935,0,0,-4.4118,-4.4109,-4.4147,-4.4141,-4.4129,-4.4104,-4.4114,-4.4092,-4.408,-4.4114,-4.4064,-4.408,-4.4103,-4.4097,-4.4097,-4.42,-4.4161,-4.4205,-4.4271,-4.4299,-4.4312,-4.4323,-4.4357,-4.437,-4.4212,-4.4212,-4.4212,0,-4.4186,-4.4214,-4.4172,-4.4199,-4.4201,-4.4142,-4.418,-4.4176,-4.4168,-4.4171,-4.414,-4.4165,-4.4155,-4.4199,-4.4224,-4.4227,-4.4235,-4.4206,-4.4313,-4.4324,-4.4334,-4.4366,-4.4379,-4.4217,-4.4217,-4.4216,-4.4216,0,-4.4296,-4.4317,-4.435,-4.4343,-4.4349,-4.4382,-4.4344,-4.4355,-4.4326,-4.4304,-4.4338,-4.4323,-4.4328,-4.4337,-4.4309,-4.4377,-4.4359,-4.4322,-4.4266,-4.4355,-4.4384,-4.4397,-4.4225,-4.4223,-4.4222,-4.422,0,0,-4.4459,-4.4427,-4.444,-4.4435,-4.4417,-4.4432,-4.4462,-4.4465,-4.4474,-4.4472,-4.4494,-4.4514,-4.4478,-4.4478,-4.4449,-4.4474,-4.4553,-4.4432,-4.4431,-4.4453,-4.4625,-4.4651,-4.4666,-4.4528,-4.453,-4.4532,-4.4625,0,-4.4559,-4.4607,-4.4569,-4.4624,-4.4641,-4.4584,-4.461,-4.4602,-4.4582,-4.4594,-4.4572,-4.4586,-4.4539,-4.4539,-4.4561,-4.4539,-4.4586,-4.4532,-4.4546,-4.4547,-4.4548,-4.4682,-4.4711,-4.4799,-4.4636,-4.4638,-4.4639,0,-4.4681,-4.4682,-4.4738,-4.4715,-4.472,-4.4744,-4.4743,-4.4755,-4.4744,-4.4728,-4.4728,-4.4691,-4.4717,-4.4664,-4.4699,-4.4662,-4.4666,-4.4656,-4.4659,-4.4657,-4.4597,-4.4681,-4.4827,-4.4839,-4.4658,-4.4656,-4.4655,0,-4.4791,-4.4806,-4.4841,-4.4839,-4.4813,-4.483,-4.482,-4.4806,-4.481,-4.481,-4.4811,-4.4815,-4.4816,-4.4819,-4.4784,-4.4749,-4.4822,-4.4766,-4.4808,-4.4809,-4.4824,-4.4823,-4.497,-4.4832,-4.4831,-4.4831,-4.4831,0,-4.4905,-4.494,-4.4889,-4.491,-4.4948,-4.4905,-4.4944,-4.4928,-4.4916,-4.4932,-4.4884,-4.4901,-4.4854,-4.4866,-4.4839,-4.487,-4.4872,-4.4859,-4.485,-4.4861,-4.4863,-4.4861,-4.4853,-4.4835,-4.4834,-4.4833,-4.4833,0,-4.5032,-4.5,-4.5033,-4.5006,-4.4999,-4.5028,-4.5004,-4.5022,-4.5,-4.5021,-4.5024,-4.4988,-4.4999,-4.4964,-4.497,-4.4952,-4.4997,-4.498,-4.5,-4.4994,-4.5037,-4.5032,-4.5185,-4.5202,-4.5056,-4.5058,-4.5059,0,-4.5106,-4.5132,-4.5106,-4.5114,-4.5106,-4.5119,-4.5122,-4.5081,-4.5086,-4.5074,-4.5093,-4.51,-4.5102,-4.5122,-4.5097,-4.51,-4.5081,-4.5135,-4.5082,-4.5091,-4.5079,-4.5077,-4.5078,-4.5145,-4.5147,-4.5149,-4.515,0,-4.5239,-4.5221,-4.5227,-4.5228,-4.5233,-4.5232,-4.5227,-4.5236,-4.5191,-4.5199,-4.5209,-4.5211,-4.5216,-4.5223,-4.522,-4.521,-4.5172,-4.5167,-4.5176,-4.5186,-4.5196,-4.5188,-4.5028,-4.5163,-4.5162,-4.5161,-4.516,-4.516,-4.534,-4.5359,-4.5343,-4.5352,-4.5344,-4.534,-4.5354,-4.5333,-4.5341,-4.5341,-4.5316,-4.5331,-4.5317,-4.531,-4.5303,-4.5313,-4.5288,-4.5303,-4.5306,-4.5309,-4.5315,-4.5197,-4.5313,-4.5313,-4.5312,-4.5312,-4.5312,0,-4.5468,-4.5455,-4.5463,-4.5457,-4.5463,-4.5427,-4.542,-4.5427,-4.544,-4.5431,-4.5434,-4.5444,-4.545,-4.5425,-4.5427,-4.544,-4.5422,-4.5441,-4.5439,-4.5436,-4.5339,-4.5329,-4.5455,-4.5455,-4.5455,-4.5455,-4.5455,-4.5455,-4.5535,-4.5564,-4.5545,-4.557,-4.5556,-4.5569,-4.5568,-4.5564,-4.5555,-4.5569,-4.5573,-4.5557,-4.554,-4.5541,-4.5544,-4.5536,-4.5538,-4.5563,-4.5549,-4.5458,-4.5444,-4.543,-4.5421,-4.5564,-4.5564,-4.5645,-4.5646,-4.5647]}]]